"read_dt","SO2 (ppb)","flags","PMT voltage (V)","lamp voltage (V)","lamp intensity (Hz)","internal temp (C)","react chamber temp (C)","sample flow (l/min)","pres (mmHg)","SO2 bkg (ppb)","SO2 coefficient"
2014-07-09 00:00:00,1860E-3,5C000000,-0724,0836,12178,031.7,045.6,0.477,732.3,01.19,0.508
2014-07-09 00:01:00,1949E-3,5C000000,-0724,0834,12223,031.7,045.6,0.477,732.3,01.19,0.508
2014-07-09 00:02:00,1905E-3,5C000000,-0724,0834,12070,031.7,045.6,0.477,732.3,01.19,0.508
2014-07-09 00:03:00,1835E-3,5C000000,-0724,0835,12080,031.7,045.6,0.477,732.3,01.19,0.508
2014-07-09 00:04:00,1762E-3,5C000000,-0724,0834,12026,031.7,045.6,0.476,732.3,01.19,0.508
2014-07-09 00:05:00,1760E-3,5C000000,-0724,0834,12266,031.7,045.6,0.477,732.3,01.19,0.508
2014-07-09 00:06:00,2013E-3,5C000000,-0724,0835,12127,031.7,045.6,0.477,732.3,01.19,0.508
2014-07-09 00:07:00,1915E-3,5C000000,-0724,0836,12158,031.7,045.6,0.477,732.3,01.19,0.508
2014-07-09 00:08:00,1892E-3,5C000000,-0724,0835,12202,031.8,045.6,0.477,732.3,01.19,0.508
2014-07-09 00:09:00,1834E-3,5C000000,-0724,0835,12115,031.8,045.6,0.477,732.3,01.19,0.508
2014-07-09 00:10:00,1921E-3,5C000000,-0724,0835,12231,031.8,045.6,0.477,732.3,01.19,0.508
2014-07-09 00:11:00,1798E-3,5C000000,-0724,0835,12177,031.8,045.6,0.476,732.3,01.19,0.508
2014-07-09 00:12:00,1860E-3,5C000000,-0724,0835,12117,031.8,045.6,0.477,732.3,01.19,0.508
2014-07-09 00:13:00,1821E-3,5C000000,-0724,0835,12039,031.8,045.6,0.477,732.3,01.19,0.508
2014-07-09 00:14:00,1907E-3,5C000000,-0724,0834,12192,031.8,045.6,0.477,732.3,01.19,0.508
2014-07-09 00:15:00,1823E-3,5C000000,-0724,0835,12180,031.8,045.6,0.477,732.3,01.19,0.508
2014-07-09 00:16:00,1957E-3,5C000000,-0724,0835,11896,031.8,045.6,0.477,732.3,01.19,0.508
2014-07-09 00:17:00,2007E-3,5C000000,-0724,0835,11996,031.9,045.6,0.477,732.3,01.19,0.508
2014-07-09 00:18:00,1791E-3,5C000000,-0724,0836,12148,031.9,045.6,0.476,732.3,01.19,0.508
2014-07-09 00:19:00,1862E-3,5C000000,-0724,0835,12149,031.9,045.6,0.477,732.3,01.19,0.508
2014-07-09 00:20:00,1718E-3,5C000000,-0724,0835,12081,031.9,045.6,0.476,732.2,01.19,0.508
2014-07-09 00:21:00,1891E-3,5C000000,-0724,0835,12087,031.9,045.6,0.477,732.2,01.19,0.508
2014-07-09 00:22:00,1865E-3,5C000000,-0724,0835,12283,031.9,045.6,0.476,732.2,01.19,0.508
2014-07-09 00:23:00,1810E-3,5C000000,-0724,0835,12130,031.9,045.6,0.477,732.2,01.19,0.508
2014-07-09 00:24:00,1858E-3,5C000000,-0724,0835,12112,031.9,045.6,0.476,732.1,01.19,0.508
2014-07-09 00:25:00,1818E-3,5C000000,-0724,0835,12238,031.9,045.6,0.476,732.1,01.19,0.508
2014-07-09 00:26:00,1895E-3,5C000000,-0724,0835,12176,031.9,045.6,0.477,732.2,01.19,0.508
2014-07-09 00:27:00,1896E-3,5C000000,-0724,0835,12337,031.9,045.6,0.476,732.2,01.19,0.508
2014-07-09 00:28:00,1843E-3,5C000000,-0724,0834,11977,031.9,045.6,0.477,732.2,01.19,0.508
2014-07-09 00:29:00,2073E-3,5C000000,-0724,0835,12224,032.0,045.6,0.476,732.1,01.19,0.508
2014-07-09 00:30:00,1836E-3,5C000000,-0724,0835,12200,032.0,045.6,0.477,732.2,01.19,0.508
2014-07-09 00:31:00,1896E-3,5C000000,-0724,0835,12305,032.0,045.6,0.476,732.2,01.19,0.508
2014-07-09 00:32:00,1824E-3,5C000000,-0724,0834,12162,032.0,045.6,0.477,732.2,01.19,0.508
2014-07-09 00:33:00,1837E-3,5C000000,-0724,0834,11999,032.0,045.6,0.476,732.2,01.19,0.508
2014-07-09 00:34:00,1802E-3,5C000000,-0724,0835,12131,032.0,045.6,0.477,732.2,01.19,0.508
2014-07-09 00:35:00,1772E-3,5C000000,-0724,0835,12127,032.0,045.6,0.476,732.2,01.19,0.508
2014-07-09 00:36:00,1855E-3,5C000000,-0724,0836,12125,032.0,045.6,0.477,732.2,01.19,0.508
2014-07-09 00:37:00,1867E-3,5C000000,-0724,0835,12172,032.0,045.6,0.476,732.2,01.19,0.508
2014-07-09 00:38:00,1822E-3,5C000000,-0724,0835,12087,032.0,045.6,0.476,732.2,01.19,0.508
2014-07-09 00:39:00,1828E-3,5C000000,-0724,0835,12247,032.0,045.6,0.476,732.2,01.19,0.508
2014-07-09 00:40:00,1861E-3,5C000000,-0724,0835,12261,032.0,045.6,0.476,732.3,01.19,0.508
2014-07-09 00:41:00,1823E-3,5C000000,-0724,0835,12150,032.0,045.6,0.476,732.3,01.19,0.508
2014-07-09 00:42:00,1888E-3,5C000000,-0724,0834,11983,032.0,045.6,0.476,732.3,01.19,0.508
2014-07-09 00:43:00,1679E-3,5C000000,-0724,0836,12213,032.0,045.6,0.476,732.3,01.19,0.508
2014-07-09 00:44:00,1874E-3,5C000000,-0724,0834,12178,032.0,045.6,0.477,732.3,01.19,0.508
2014-07-09 00:45:00,1824E-3,5C000000,-0724,0836,12299,032.0,045.6,0.476,732.4,01.19,0.508
2014-07-09 00:46:00,1941E-3,5C000000,-0724,0835,12129,032.0,045.6,0.477,732.4,01.19,0.508
2014-07-09 00:47:00,2001E-3,5C000000,-0724,0835,12232,032.0,045.6,0.476,732.4,01.19,0.508
2014-07-09 00:48:00,1878E-3,5C000000,-0724,0834,12054,032.0,045.6,0.477,732.4,01.19,0.508
2014-07-09 00:49:00,2000E-3,5C000000,-0724,0834,12198,032.0,045.6,0.476,732.4,01.19,0.508
2014-07-09 00:50:00,1833E-3,5C000000,-0724,0835,12181,032.0,045.6,0.477,732.4,01.19,0.508
2014-07-09 00:51:00,1922E-3,5C000000,-0724,0835,12068,032.0,045.6,0.476,732.4,01.19,0.508
2014-07-09 00:52:00,1860E-3,5C000000,-0724,0836,12069,032.0,045.6,0.477,732.4,01.19,0.508
2014-07-09 00:53:00,1942E-3,5C000000,-0724,0835,12177,032.0,045.6,0.476,732.4,01.19,0.508
2014-07-09 00:54:00,1916E-3,5C000000,-0724,0835,12196,032.1,045.6,0.476,732.4,01.19,0.508
2014-07-09 00:55:00,1814E-3,5C000000,-0724,0835,12282,032.1,045.6,0.476,732.4,01.19,0.508
2014-07-09 00:56:00,1891E-3,5C000000,-0724,0835,12238,032.1,045.6,0.476,732.4,01.19,0.508
2014-07-09 00:57:00,1880E-3,5C000000,-0724,0835,12189,032.1,045.6,0.477,732.4,01.19,0.508
2014-07-09 00:58:00,2054E-3,5C000000,-0724,0835,12169,032.1,045.6,0.476,732.4,01.19,0.508
2014-07-09 00:59:00,1752E-3,5C000000,-0724,0835,12059,032.1,045.7,0.477,732.4,01.19,0.508
2014-07-09 01:00:00,1877E-3,5C000000,-0724,0836,11933,032.1,045.6,0.476,732.3,01.19,0.508
2014-07-09 01:01:00,1878E-3,5C000000,-0724,0834,12049,032.1,045.6,0.477,732.4,01.19,0.508
2014-07-09 01:02:00,1784E-3,5C000000,-0724,0834,12046,032.1,045.6,0.476,732.3,01.19,0.508
2014-07-09 01:03:00,1858E-3,5C000000,-0724,0835,12280,032.1,045.6,0.477,732.4,01.19,0.508
2014-07-09 01:04:00,1737E-3,5C000000,-0724,0836,12261,032.1,045.6,0.476,732.4,01.19,0.508
2014-07-09 01:05:00,1750E-3,5C000000,-0724,0835,12140,032.1,045.6,0.476,732.4,01.19,0.508
2014-07-09 01:06:00,1875E-3,5C000000,-0724,0835,12266,032.1,045.6,0.476,732.4,01.19,0.508
2014-07-09 01:07:00,1791E-3,5C000000,-0724,0835,12153,032.1,045.6,0.476,732.4,01.19,0.508
2014-07-09 01:08:00,2016E-3,5C000000,-0724,0836,12123,032.1,045.6,0.477,732.4,01.19,0.508
2014-07-09 01:09:00,1907E-3,5C000000,-0724,0835,12128,032.1,045.6,0.476,732.4,01.19,0.508
2014-07-09 01:10:00,1961E-3,5C000000,-0724,0835,12201,032.1,045.6,0.477,732.4,01.19,0.508
2014-07-09 01:11:00,1904E-3,5C000000,-0724,0834,12146,032.1,045.6,0.476,732.4,01.19,0.508
2014-07-09 01:12:00,1898E-3,5C000000,-0724,0835,12135,032.1,045.6,0.476,732.4,01.19,0.508
2014-07-09 01:13:00,1846E-3,5C000000,-0724,0834,12065,032.1,045.6,0.476,732.4,01.19,0.508
2014-07-09 01:14:00,1894E-3,5C000000,-0724,0836,12068,032.1,045.6,0.476,732.4,01.19,0.508
2014-07-09 01:15:00,1922E-3,5C000000,-0724,0835,12050,032.1,045.6,0.477,732.4,01.19,0.508
2014-07-09 01:16:00,1842E-3,5C000000,-0724,0836,12165,032.1,045.6,0.476,732.4,01.19,0.508
2014-07-09 01:17:00,1898E-3,5C000000,-0724,0835,12206,032.1,045.6,0.477,732.4,01.19,0.508
2014-07-09 01:18:00,1889E-3,5C000000,-0724,0835,12096,032.1,045.6,0.476,732.4,01.19,0.508
2014-07-09 01:19:00,1806E-3,5C000000,-0724,0835,12129,032.1,045.6,0.476,732.4,01.19,0.508
2014-07-09 01:20:00,1908E-3,5C000000,-0724,0835,12146,032.1,045.6,0.476,732.4,01.19,0.508
2014-07-09 01:21:00,1969E-3,5C000000,-0724,0835,12199,032.1,045.6,0.476,732.4,01.19,0.508
2014-07-09 01:22:00,1798E-3,5C000000,-0724,0835,12317,032.1,045.6,0.476,732.3,01.19,0.508
2014-07-09 01:23:00,1801E-3,5C000000,-0724,0835,12125,032.1,045.6,0.476,732.3,01.19,0.508
2014-07-09 01:24:00,1905E-3,5C000000,-0724,0836,12262,032.1,045.6,0.476,732.3,01.19,0.508
2014-07-09 01:25:00,1877E-3,5C000000,-0724,0835,12254,032.1,045.6,0.476,732.3,01.19,0.508
2014-07-09 01:26:00,1716E-3,5C000000,-0724,0835,12015,032.1,045.7,0.476,732.3,01.19,0.508
2014-07-09 01:27:00,1827E-3,5C000000,-0724,0835,12277,032.1,045.6,0.476,732.4,01.19,0.508
2014-07-09 01:28:00,1806E-3,5C000000,-0724,0834,12034,032.1,045.6,0.476,732.3,01.19,0.508
2014-07-09 01:29:00,1935E-3,5C000000,-0724,0835,12205,032.1,045.6,0.476,732.4,01.19,0.508
2014-07-09 01:30:00,1950E-3,5C000000,-0724,0835,12149,032.1,045.6,0.477,732.3,01.19,0.508
2014-07-09 01:31:00,1758E-3,5C000000,-0724,0835,12194,032.1,045.6,0.476,732.3,01.19,0.508
2014-07-09 01:32:00,1820E-3,5C000000,-0724,0835,12229,032.1,045.6,0.477,732.4,01.19,0.508
2014-07-09 01:33:00,1811E-3,5C000000,-0724,0835,12115,032.1,045.6,0.476,732.3,01.19,0.508
2014-07-09 01:34:00,2056E-3,5C000000,-0724,0835,12142,032.1,045.6,0.477,732.3,01.19,0.508
2014-07-09 01:35:00,1740E-3,5C000000,-0724,0836,11939,032.1,045.6,0.476,732.3,01.19,0.508
2014-07-09 01:36:00,1817E-3,5C000000,-0724,0835,12049,032.1,045.6,0.476,732.3,01.19,0.508
2014-07-09 01:37:00,1963E-3,5C000000,-0724,0834,12261,032.1,045.6,0.476,732.3,01.19,0.508
2014-07-09 01:38:00,1894E-3,5C000000,-0724,0835,12036,032.1,045.6,0.476,732.4,01.19,0.508
2014-07-09 01:39:00,1860E-3,5C000000,-0724,0835,12273,032.1,045.7,0.476,732.4,01.19,0.508
2014-07-09 01:40:00,1996E-3,5C000000,-0724,0836,12156,032.2,045.6,0.476,732.4,01.19,0.508
2014-07-09 01:41:00,1833E-3,5C000000,-0724,0835,12117,032.2,045.6,0.476,732.3,01.19,0.508
2014-07-09 01:42:00,1877E-3,5C000000,-0724,0835,12019,032.1,045.6,0.476,732.3,01.19,0.508
2014-07-09 01:43:00,1868E-3,5C000000,-0724,0835,12277,032.2,045.6,0.476,732.3,01.19,0.508
2014-07-09 01:44:00,1818E-3,5C000000,-0724,0834,12151,032.2,045.7,0.476,732.4,01.19,0.508
2014-07-09 01:45:00,1747E-3,5C000000,-0724,0835,12121,032.1,045.6,0.476,732.3,01.19,0.508
2014-07-09 01:46:00,1896E-3,5C000000,-0724,0835,12189,032.1,045.6,0.476,732.4,01.19,0.508
2014-07-09 01:47:00,1974E-3,5C000000,-0724,0836,12290,032.2,045.6,0.476,732.3,01.19,0.508
2014-07-09 01:48:00,1889E-3,5C000000,-0724,0835,12292,032.2,045.6,0.476,732.4,01.19,0.508
2014-07-09 01:49:00,1836E-3,5C000000,-0724,0834,12006,032.2,045.6,0.476,732.3,01.19,0.508
2014-07-09 01:50:00,1894E-3,5C000000,-0724,0834,12011,032.2,045.6,0.476,732.4,01.19,0.508
2014-07-09 01:51:00,1814E-3,5C000000,-0724,0835,12017,032.2,045.6,0.476,732.3,01.19,0.508
2014-07-09 01:52:00,1782E-3,5C000000,-0724,0835,12101,032.2,045.6,0.476,732.3,01.19,0.508
2014-07-09 01:53:00,1903E-3,5C000000,-0724,0836,12237,032.2,045.6,0.476,732.3,01.19,0.508
2014-07-09 01:54:00,1744E-3,5C000000,-0724,0835,12107,032.2,045.6,0.476,732.3,01.19,0.508
2014-07-09 01:55:00,1920E-3,5C000000,-0724,0834,12187,032.2,045.6,0.476,732.4,01.19,0.508
2014-07-09 01:56:00,1865E-3,5C000000,-0724,0836,12175,032.2,045.6,0.476,732.4,01.19,0.508
2014-07-09 01:57:00,1919E-3,5C000000,-0724,0835,12155,032.2,045.6,0.476,732.3,01.19,0.508
2014-07-09 01:58:00,1869E-3,5C000000,-0724,0835,12061,032.2,045.6,0.476,732.3,01.19,0.508
2014-07-09 01:59:00,1801E-3,5C000000,-0724,0835,12230,032.2,045.6,0.476,732.3,01.19,0.508
2014-07-09 02:00:00,1885E-3,5C000000,-0724,0835,12035,032.3,045.6,0.476,732.3,01.19,0.508
2014-07-09 02:01:00,2002E-3,5C000000,-0724,0835,12156,032.3,045.6,0.476,732.4,01.19,0.508
2014-07-09 02:02:00,1830E-3,5C000000,-0724,0835,12145,032.3,045.6,0.476,732.4,01.19,0.508
2014-07-09 02:03:00,1794E-3,5C000000,-0724,0835,11933,032.3,045.6,0.476,732.4,01.19,0.508
2014-07-09 02:04:00,1747E-3,5C000000,-0724,0834,12135,032.3,045.6,0.476,732.4,01.19,0.508
2014-07-09 02:05:00,1845E-3,5C000000,-0724,0835,12300,032.3,045.6,0.476,732.4,01.19,0.508
2014-07-09 02:06:00,2005E-3,5C000000,-0724,0835,12022,032.3,045.6,0.476,732.4,01.19,0.508
2014-07-09 02:07:00,1764E-3,5C000000,-0724,0834,12057,032.3,045.6,0.476,732.4,01.19,0.508
2014-07-09 02:08:00,1960E-3,5C000000,-0724,0835,12170,032.3,045.6,0.476,732.4,01.19,0.508
2014-07-09 02:09:00,1697E-3,5C000000,-0724,0834,12269,032.3,045.6,0.476,732.4,01.19,0.508
2014-07-09 02:10:00,1932E-3,5C000000,-0724,0835,11934,032.3,045.6,0.476,732.4,01.19,0.508
2014-07-09 02:11:00,1927E-3,5C000000,-0724,0835,12157,032.3,045.6,0.476,732.4,01.19,0.508
2014-07-09 02:12:00,2019E-3,5C000000,-0724,0835,12181,032.3,045.6,0.476,732.4,01.19,0.508
2014-07-09 02:13:00,1732E-3,5C000000,-0724,0835,12083,032.3,045.6,0.476,732.3,01.19,0.508
2014-07-09 02:14:00,1900E-3,5C000000,-0724,0834,12005,032.3,045.6,0.476,732.4,01.19,0.508
2014-07-09 02:15:00,1959E-3,5C000000,-0724,0835,12027,032.3,045.6,0.476,732.4,01.19,0.508
2014-07-09 02:16:00,1720E-3,5C000000,-0724,0834,12211,032.3,045.6,0.476,732.4,01.19,0.508
2014-07-09 02:17:00,1953E-3,5C000000,-0724,0836,12065,032.3,045.7,0.476,732.4,01.19,0.508
2014-07-09 02:18:00,1747E-3,5C000000,-0724,0835,12167,032.3,045.6,0.476,732.4,01.19,0.508
2014-07-09 02:19:00,1833E-3,5C000000,-0724,0836,12140,032.3,045.6,0.476,732.5,01.19,0.508
2014-07-09 02:20:00,1883E-3,5C000000,-0724,0836,12111,032.3,045.6,0.476,732.4,01.19,0.508
2014-07-09 02:21:00,1802E-3,5C000000,-0724,0835,12367,032.3,045.6,0.476,732.4,01.19,0.508
2014-07-09 02:22:00,1913E-3,5C000000,-0724,0835,12027,032.4,045.6,0.476,732.4,01.19,0.508
2014-07-09 02:23:00,2008E-3,5C000000,-0724,0836,12132,032.4,045.6,0.476,732.4,01.19,0.508
2014-07-09 02:24:00,1838E-3,5C000000,-0724,0835,12153,032.4,045.6,0.476,732.4,01.19,0.508
2014-07-09 02:25:00,1727E-3,5C000000,-0724,0835,12137,032.4,045.6,0.475,732.4,01.19,0.508
2014-07-09 02:26:00,1762E-3,5C000000,-0724,0834,12171,032.4,045.6,0.476,732.4,01.19,0.508
2014-07-09 02:27:00,1933E-3,5C000000,-0724,0835,12035,032.4,045.6,0.476,732.4,01.19,0.508
2014-07-09 02:28:00,1714E-3,5C000000,-0724,0835,12240,032.4,045.6,0.476,732.4,01.19,0.508
2014-07-09 02:29:00,1871E-3,5C000000,-0724,0835,12135,032.4,045.6,0.476,732.4,01.19,0.508
2014-07-09 02:30:00,1819E-3,5C000000,-0724,0834,12002,032.4,045.6,0.476,732.4,01.19,0.508
2014-07-09 02:31:00,1801E-3,5C000000,-0724,0835,11968,032.4,045.6,0.476,732.4,01.19,0.508
2014-07-09 02:32:00,1841E-3,5C000000,-0724,0836,12214,032.4,045.6,0.476,732.4,01.19,0.508
2014-07-09 02:33:00,1888E-3,5C000000,-0724,0834,12124,032.4,045.6,0.476,732.4,01.19,0.508
2014-07-09 02:34:00,1823E-3,5C000000,-0724,0835,12000,032.4,045.6,0.476,732.4,01.19,0.508
2014-07-09 02:35:00,1973E-3,5C000000,-0724,0834,12164,032.4,045.6,0.475,732.5,01.19,0.508
2014-07-09 02:36:00,1930E-3,5C000000,-0724,0835,12143,032.4,045.6,0.476,732.5,01.19,0.508
2014-07-09 02:37:00,1748E-3,5C000000,-0724,0835,12078,032.4,045.7,0.476,732.4,01.19,0.508
2014-07-09 02:38:00,1843E-3,5C000000,-0724,0835,12079,032.4,045.7,0.475,732.4,01.19,0.508
2014-07-09 02:39:00,1923E-3,5C000000,-0724,0834,12125,032.4,045.6,0.476,732.5,01.19,0.508
2014-07-09 02:40:00,1931E-3,5C000000,-0724,0835,12104,032.5,045.6,0.476,732.5,01.19,0.508
2014-07-09 02:41:00,1920E-3,5C000000,-0724,0834,12222,032.5,045.7,0.476,732.4,01.19,0.508
2014-07-09 02:42:00,1855E-3,5C000000,-0724,0834,12170,032.5,045.6,0.476,732.4,01.19,0.508
2014-07-09 02:43:00,1821E-3,5C000000,-0724,0835,11953,032.5,045.6,0.475,732.4,01.19,0.508
2014-07-09 02:44:00,1885E-3,5C000000,-0724,0834,12138,032.5,045.6,0.476,732.4,01.19,0.508
2014-07-09 02:45:00,1831E-3,5C000000,-0724,0834,12198,032.5,045.6,0.476,732.4,01.19,0.508
2014-07-09 02:46:00,1896E-3,5C000000,-0724,0835,12085,032.5,045.6,0.475,732.4,01.19,0.508
2014-07-09 02:47:00,1858E-3,5C000000,-0724,0835,12112,032.5,045.6,0.476,732.4,01.19,0.508
2014-07-09 02:48:00,1908E-3,5C000000,-0724,0835,11952,032.5,045.6,0.476,732.4,01.19,0.508
2014-07-09 02:49:00,1810E-3,5C000000,-0724,0835,12266,032.5,045.6,0.475,732.3,01.19,0.508
2014-07-09 02:50:00,1873E-3,5C000000,-0724,0835,12122,032.5,045.6,0.476,732.3,01.19,0.508
2014-07-09 02:51:00,1831E-3,5C000000,-0724,0836,12288,032.6,045.6,0.476,732.3,01.19,0.508
2014-07-09 02:52:00,1927E-3,5C000000,-0724,0836,12171,032.6,045.7,0.475,732.3,01.19,0.508
2014-07-09 02:53:00,1841E-3,5C000000,-0724,0835,12219,032.6,045.7,0.476,732.3,01.19,0.508
2014-07-09 02:54:00,1916E-3,5C000000,-0724,0835,12133,032.6,045.6,0.475,732.3,01.19,0.508
2014-07-09 02:55:00,1849E-3,5C000000,-0724,0835,12220,032.6,045.6,0.475,732.3,01.19,0.508
2014-07-09 02:56:00,1807E-3,5C000000,-0724,0835,12046,032.6,045.6,0.476,732.4,01.19,0.508
2014-07-09 02:57:00,1894E-3,5C000000,-0724,0836,12088,032.6,045.7,0.476,732.4,01.19,0.508
2014-07-09 02:58:00,1863E-3,5C000000,-0724,0835,12265,032.6,045.7,0.475,732.4,01.19,0.508
2014-07-09 02:59:00,1932E-3,5C000000,-0724,0835,11912,032.6,045.6,0.476,732.4,01.19,0.508
2014-07-09 03:00:00,1751E-3,5C000000,-0724,0835,12177,032.7,045.6,0.476,732.4,01.19,0.508
2014-07-09 03:01:00,1946E-3,5C000000,-0724,0834,12231,032.7,045.7,0.475,732.3,01.19,0.508
2014-07-09 03:02:00,1919E-3,5C000000,-0724,0835,12246,032.7,045.6,0.476,732.3,01.19,0.508
2014-07-09 03:03:00,1877E-3,5C000000,-0724,0834,12223,032.7,045.6,0.476,732.3,01.19,0.508
2014-07-09 03:04:00,1786E-3,5C000000,-0724,0835,12098,032.7,045.6,0.475,732.3,01.19,0.508
2014-07-09 03:05:00,1841E-3,5C000000,-0724,0835,12148,032.7,045.7,0.475,732.3,01.19,0.508
2014-07-09 03:06:00,1905E-3,5C000000,-0724,0835,12341,032.7,045.6,0.476,732.3,01.19,0.508
2014-07-09 03:07:00,1912E-3,5C000000,-0724,0836,12007,032.7,045.6,0.475,732.3,01.19,0.508
2014-07-09 03:08:00,1882E-3,5C000000,-0724,0836,12105,032.7,045.6,0.475,732.3,01.19,0.508
2014-07-09 03:09:00,1853E-3,5C000000,-0724,0835,12116,032.7,045.6,0.476,732.3,01.19,0.508
2014-07-09 03:10:00,1834E-3,5C000000,-0724,0836,12313,032.7,045.7,0.475,732.3,01.19,0.508
2014-07-09 03:11:00,1922E-3,5C000000,-0724,0835,12074,032.7,045.7,0.475,732.3,01.19,0.508
2014-07-09 03:12:00,1817E-3,5C000000,-0724,0836,12085,032.8,045.7,0.475,732.3,01.19,0.508
2014-07-09 03:13:00,1894E-3,5C000000,-0724,0835,12160,032.8,045.6,0.476,732.3,01.19,0.508
2014-07-09 03:14:00,1756E-3,5C000000,-0724,0836,12066,032.8,045.7,0.475,732.3,01.19,0.508
2014-07-09 03:15:00,2037E-3,5C000000,-0724,0835,12155,032.8,045.7,0.475,732.3,01.19,0.508
2014-07-09 03:16:00,1905E-3,5C000000,-0724,0836,12115,032.8,045.7,0.475,732.3,01.19,0.508
2014-07-09 03:17:00,1882E-3,5C000000,-0724,0835,12131,032.8,045.7,0.475,732.3,01.19,0.508
2014-07-09 03:18:00,2008E-3,5C000000,-0724,0835,12035,032.8,045.7,0.475,732.3,01.19,0.508
2014-07-09 03:19:00,1958E-3,5C000000,-0724,0835,12243,032.8,045.7,0.475,732.3,01.19,0.508
2014-07-09 03:20:00,1848E-3,5C000000,-0724,0837,12088,032.8,045.6,0.475,732.3,01.19,0.508
2014-07-09 03:21:00,1882E-3,5C000000,-0724,0836,12196,032.8,045.6,0.475,732.3,01.19,0.508
2014-07-09 03:22:00,1947E-3,5C000000,-0724,0837,12141,032.8,045.7,0.475,732.2,01.19,0.508
2014-07-09 03:23:00,1831E-3,5C000000,-0724,0835,12005,032.9,045.6,0.475,732.2,01.19,0.508
2014-07-09 03:24:00,1879E-3,5C000000,-0724,0836,12229,032.9,045.7,0.475,732.2,01.19,0.508
2014-07-09 03:25:00,1968E-3,5C000000,-0724,0835,12238,032.9,045.6,0.475,732.3,01.19,0.508
2014-07-09 03:26:00,1803E-3,5C000000,-0724,0835,12155,032.9,045.7,0.475,732.2,01.19,0.508
2014-07-09 03:27:00,1819E-3,5C000000,-0724,0835,12185,032.9,045.7,0.475,732.3,01.19,0.508
2014-07-09 03:28:00,1843E-3,5C000000,-0724,0835,12171,032.9,045.7,0.475,732.2,01.19,0.508
2014-07-09 03:29:00,2113E-3,5C000000,-0724,0835,12116,032.9,045.7,0.475,732.2,01.19,0.508
2014-07-09 03:30:00,1851E-3,5C000000,-0724,0835,12269,032.9,045.7,0.475,732.2,01.19,0.508
2014-07-09 03:31:00,1906E-3,5C000000,-0724,0836,12239,033.0,045.6,0.475,732.2,01.19,0.508
2014-07-09 03:32:00,1962E-3,5C000000,-0724,0835,12139,032.9,045.7,0.475,732.2,01.19,0.508
2014-07-09 03:33:00,1924E-3,5C000000,-0724,0836,11993,032.9,045.7,0.475,732.1,01.19,0.508
2014-07-09 03:34:00,1806E-3,5C000000,-0724,0836,12093,033.0,045.7,0.475,732.2,01.19,0.508
2014-07-09 03:35:00,1851E-3,5C000000,-0724,0834,12124,032.9,045.6,0.475,732.1,01.19,0.508
2014-07-09 03:36:00,1754E-3,5C000000,-0724,0835,12105,032.9,045.6,0.475,732.2,01.19,0.508
2014-07-09 03:37:00,1829E-3,5C000000,-0724,0836,12197,032.9,045.6,0.475,732.2,01.19,0.508
2014-07-09 03:38:00,1903E-3,5C000000,-0724,0836,12206,032.9,045.7,0.475,732.1,01.19,0.508
2014-07-09 03:39:00,1775E-3,5C000000,-0724,0836,12202,032.9,045.7,0.475,732.1,01.19,0.508
2014-07-09 03:40:00,1778E-3,5C000000,-0724,0835,12113,032.9,045.7,0.475,732.1,01.19,0.508
2014-07-09 03:41:00,1988E-3,5C000000,-0724,0835,12128,032.9,045.7,0.475,732.1,01.19,0.508
2014-07-09 03:42:00,2041E-3,5C000000,-0724,0835,12057,032.9,045.6,0.475,732.2,01.19,0.508
2014-07-09 03:43:00,1929E-3,5C000000,-0724,0835,12081,032.9,045.6,0.475,732.1,01.19,0.508
2014-07-09 03:44:00,1867E-3,5C000000,-0724,0835,12175,032.9,045.6,0.475,732.1,01.19,0.508
2014-07-09 03:45:00,1911E-3,5C000000,-0724,0836,12003,032.9,045.6,0.475,732.1,01.19,0.508
2014-07-09 03:46:00,1901E-3,5C000000,-0724,0836,12189,032.9,045.7,0.475,732.1,01.19,0.508
2014-07-09 03:47:00,1777E-3,5C000000,-0724,0836,11993,032.9,045.7,0.475,732.1,01.19,0.508
2014-07-09 03:48:00,1922E-3,5C000000,-0724,0835,12179,032.9,045.7,0.475,732.0,01.19,0.508
2014-07-09 03:49:00,1980E-3,5C000000,-0724,0837,12065,032.9,045.7,0.475,732.1,01.19,0.508
2014-07-09 03:50:00,1927E-3,5C000000,-0724,0836,11883,032.9,045.7,0.475,732.1,01.19,0.508
2014-07-09 03:51:00,1901E-3,5C000000,-0724,0836,12256,032.9,045.7,0.475,732.1,01.19,0.508
2014-07-09 03:52:00,1900E-3,5C000000,-0724,0836,12137,033.0,045.7,0.475,732.0,01.19,0.508
2014-07-09 03:53:00,1752E-3,5C000000,-0724,0835,12138,033.0,045.7,0.475,732.1,01.19,0.508
2014-07-09 03:54:00,2012E-3,5C000000,-0724,0836,12142,033.0,045.7,0.475,732.1,01.19,0.508
2014-07-09 03:55:00,1977E-3,5C000000,-0724,0836,12179,033.0,045.7,0.475,732.1,01.19,0.508
2014-07-09 03:56:00,1842E-3,5C000000,-0724,0834,11933,033.0,045.7,0.475,732.2,01.19,0.508
2014-07-09 03:57:00,1770E-3,5C000000,-0724,0836,12083,033.0,045.7,0.475,732.1,01.19,0.508
2014-07-09 03:58:00,1748E-3,5C000000,-0724,0835,12149,033.0,045.7,0.475,732.1,01.19,0.508
2014-07-09 03:59:00,1981E-3,5C000000,-0724,0835,12164,033.0,045.7,0.475,732.1,01.19,0.508
2014-07-09 04:00:00,1847E-3,5C000000,-0724,0836,12185,033.0,045.7,0.475,732.1,01.19,0.508
2014-07-09 04:01:00,1924E-3,5C000000,-0724,0836,12157,033.0,045.7,0.475,732.1,01.19,0.508
2014-07-09 04:02:00,1932E-3,5C000000,-0724,0835,12132,033.0,045.7,0.475,732.1,01.19,0.508
2014-07-09 04:03:00,1905E-3,5C000000,-0724,0836,12115,033.0,045.7,0.475,732.1,01.19,0.508
2014-07-09 04:04:00,1907E-3,5C000000,-0724,0835,12239,033.1,045.7,0.474,732.1,01.19,0.508
2014-07-09 04:05:00,1880E-3,5C000000,-0724,0835,12074,033.1,045.7,0.475,732.1,01.19,0.508
2014-07-09 04:06:00,1968E-3,5C000000,-0724,0836,11872,033.1,045.7,0.475,732.1,01.19,0.508
2014-07-09 04:07:00,1961E-3,5C000000,-0724,0836,12209,033.1,045.7,0.475,732.2,01.19,0.508
2014-07-09 04:08:00,1871E-3,5C000000,-0724,0836,12299,033.1,045.7,0.474,732.1,01.19,0.508
2014-07-09 04:09:00,1937E-3,5C000000,-0724,0835,12230,033.1,045.7,0.475,732.1,01.19,0.508
2014-07-09 04:10:00,1813E-3,5C000000,-0724,0835,12135,033.1,045.7,0.475,732.1,01.19,0.508
2014-07-09 04:11:00,1885E-3,5C000000,-0724,0836,12127,033.1,045.7,0.475,732.1,01.19,0.508
2014-07-09 04:12:00,1939E-3,5C000000,-0724,0835,12082,033.1,045.7,0.475,732.1,01.19,0.508
2014-07-09 04:13:00,1800E-3,5C000000,-0724,0835,12222,033.1,045.6,0.474,732.1,01.19,0.508
2014-07-09 04:14:00,1798E-3,5C000000,-0724,0835,12194,033.1,045.6,0.475,732.1,01.19,0.508
2014-07-09 04:15:00,1907E-3,5C000000,-0724,0835,12141,033.1,045.6,0.475,732.1,01.19,0.508
2014-07-09 04:16:00,1807E-3,5C000000,-0724,0835,12185,033.1,045.7,0.475,732.1,01.19,0.508
2014-07-09 04:17:00,1966E-3,5C000000,-0724,0835,12073,033.1,045.7,0.475,732.0,01.19,0.508
2014-07-09 04:18:00,1872E-3,5C000000,-0724,0836,12179,033.1,045.7,0.474,732.1,01.19,0.508
2014-07-09 04:19:00,1748E-3,5C000000,-0724,0834,12275,033.1,045.7,0.475,732.1,01.19,0.508
2014-07-09 04:20:00,1947E-3,5C000000,-0724,0836,11925,033.1,045.7,0.475,732.0,01.19,0.508